GFSSE_con_3kmhel_126.txt.gz
Helicity
80 63 73 71 81 153 200 211 215 226 231 224 225 209 187 145 121 84 74 59 61 57 56 52 46 40 39 40 42 39 41 36 34 41 31 31 36 38 48 74 66 50 66
165 103 89 94 93 150 203 216 234 242 253 247 246 224 180 134 122 82 75 66 73 59 61 58 56 50 57 64 57 51 51 46 43 60 76 72 60 63 51 66 69 55 71
189 106 96 98 119 137 195 221 243 261 265 261 248 202 168 121 98 81 72 68 76 68 68 66 65 65 63 70 79 89 80 65 72 57 48 43 53 59 63 90 69 80 70
209 129 96 104 122 146 179 208 242 259 268 250 213 178 147 110 97 69 69 69 82 88 79 70 72 77 75 75 80 87 87 96 84 81 91 94 47 52 64 75 71 68 70
188 124 91 117 121 143 182 203 221 247 243 223 185 145 119 97 92 62 64 60 95 85 74 76 79 75 73 73 86 88 92 93 80 85 64 52 45 49 65 65 53 51 60
164 107 96 112 118 140 173 192 190 217 211 186 155 117 93 87 82 61 57 66 88 83 82 87 93 82 66 77 93 96 93 79 72 60 46 44 56 56 60 68 55 71 81
138 107 89 110 123 129 140 147 147 164 166 146 129 110 91 80 67 61 61 65 82 80 88 97 96 73 67 87 97 85 72 63 54 47 44 34 33 48 55 57 72 81 83
155 108 93 98 109 106 101 95 104 110 123 111 104 102 93 74 67 61 65 83 92 91 97 93 93 66 72 84 82 85 64 60 35 41 39 24 38 61 58 72 83 79 95
138 125 83 68 87 100 77 52 75 82 84 89 85 93 86 70 69 67 75 84 90 91 100 99 100 73 70 88 82 81 77 57 38 38 37 20 34 66 66 70 96 112 132
164 115 106 68 64 76 48 45 48 61 64 67 71 82 85 75 66 72 85 87 90 86 87 102 100 73 80 101 97 88 75 64 38 31 36 34 68 68 65 66 74 132 116
160 122 109 112 85 34 28 26 34 40 48 51 59 71 85 68 62 73 74 86 95 89 78 87 108 78 85 105 92 95 85 55 52 39 42 38 52 63 78 85 90 110 80
179 159 153 118 102 60 22 59 56 36 31 38 48 64 70 71 60 66 69 83 98 98 93 85 100 98 102 91 81 85 63 58 48 56 45 44 63 57 85 67 82 81 95
236 251 169 138 132 98 62 74 65 45 40 33 47 63 64 72 70 65 81 77 88 103 109 114 125 112 98 85 84 74 64 70 53 51 48 53 62 63 71 94 91 76 81
256 219 215 168 134 129 111 97 75 77 47 45 45 86 102 95 87 83 94 87 98 103 125 135 126 113 107 92 93 92 76 68 62 58 58 63 52 67 80 93 93 125 106
180 227 202 190 157 161 141 125 116 91 61 39 47 76 111 108 105 94 88 102 98 114 121 138 148 131 121 111 93 84 78 66 59 64 50 48 49 48 82 105 121 117 107
194 180 195 138 187 189 196 164 149 103 97 79 63 67 103 107 106 102 96 104 101 114 122 134 142 144 124 123 111 84 69 72 57 57 67 47 43 4 68 110 102 106 111
183 248 166 146 203 213 214 213 178 140 105 111 102 91 102 109 114 114 123 120 108 111 132 133 130 135 138 123 112 99 85 68 62 61 42 55 46 33 32 68 98 122 124
155 229 186 176 181 217 224 224 214 208 166 143 151 150 128 126 129 153 158 140 140 132 143 138 132 130 123 139 123 118 110 91 68 65 56 60 65 54 44 78 81 102 183
188 187 210 207 183 195 205 225 227 258 235 206 209 182 159 142 162 168 172 168 166 153 161 156 140 140 113 108 114 126 133 130 101 93 71 74 76 73 76 105 108 111 26
209 177 203 249 190 179 220 227 192 194 223 222 197 187 197 174 176 182 177 174 181 174 180 182 161 155 135 133 121 123 138 136 149 135 109 87 88 95 102 121 146 111 101
195 207 234 249 178 230 242 249 207 175 184 211 183 176 176 191 179 171 167 166 180 187 187 173 178 165 163 163 157 130 125 140 186 180 192 151 114 98 115 124 147 153 119
161 277 224 209 217 245 237 247 287 258 222 196 207 202 176 174 182 175 184 175 171 183 197 215 224 225 181 206 195 177 132 121 132 191 195 192 156 137 96 129 119 152 143
152 192 207 206 228 250 268 308 345 302 266 250 194 201 196 197 179 176 181 189 189 190 192 207 229 228 233 219 216 210 193 167 146 145 170 194 184 168 144 108 133 182 102
218 164 210 268 286 298 338 329 338 332 325 271 232 193 214 178 167 154 198 217 207 213 222 218 215 232 267 251 219 214 250 231 181 145 164 157 142 148 144 122 150 206 157
265 336 375 433 475 437 399 351 390 410 340 299 288 290 282 153 123 154 189 225 218 238 234 282 246 248 256 282 286 291 277 297 277 258 193 225 160 123 145 167 202 179 128
415 432 515 562 629 611 618 566 494 427 328 284 262 268 184 188 97 143 178 231 234 246 282 306 283 245 253 242 273 298 338 300 311 310 277 254 201 148 128 154 208 227 213

GFSSE_con_3kmhel_132.txt.gz
Helicity
136 169 149 120 105 143 110 86 90 151 160 141 127 121 105 112 89 74 84 56 45 44 39 38 32 35 45 49 46 40 45 55 50 51 48 42 39 23 40 3 -26 42 35
117 180 156 148 121 162 136 118 107 149 156 147 136 125 115 116 94 80 69 44 39 40 42 40 45 50 54 48 43 49 44 44 37 51 47 61 89 98 111 11 58 62 95
124 164 148 169 147 175 160 141 122 165 168 158 146 142 131 121 92 89 59 43 42 43 46 47 57 63 62 65 65 67 69 78 81 72 29 39 48 62 39 66 70 63 63
99 144 149 176 170 200 171 158 144 164 175 176 165 153 139 122 92 80 56 37 48 68 60 56 61 69 72 82 84 83 85 77 58 23 4 34 52 40 60 54 43 51 60
91 91 130 190 180 219 193 169 151 157 181 172 165 151 136 114 98 75 57 44 55 59 51 60 68 74 80 78 81 81 78 57 16 -3 45 44 41 47 58 51 46 52 35
95 89 129 181 198 218 206 186 168 160 171 165 164 142 121 104 90 83 53 50 51 58 51 57 68 68 70 65 75 77 70 42 -9 36 44 50 41 66 54 50 71 70 72
88 95 77 162 205 226 203 185 176 171 168 157 148 130 109 94 79 77 57 47 50 58 62 64 71 73 59 61 73 71 55 18 7 25 35 34 61 74 61 61 64 72 86
38 63 81 143 190 211 194 181 177 172 162 139 118 111 103 88 79 70 62 40 52 67 76 81 76 63 58 62 62 59 35 -1 2 19 16 30 67 62 59 64 72 84 96
42 44 74 103 131 179 179 169 164 151 144 121 100 89 94 83 81 71 65 45 59 71 82 89 82 68 65 55 53 53 33 -10 3 22 11 26 47 50 62 64 74 86 91
37 62 73 92 106 108 112 140 142 127 113 101 84 76 77 75 75 73 74 55 60 70 83 87 86 77 68 59 53 52 38 -5 8 18 10 53 55 24 68 85 80 77 80
24 66 70 78 101 101 98 103 105 96 91 81 67 64 67 46 49 67 54 84 64 73 76 86 82 75 70 64 58 48 26 8 12 6 8 59 42 43 65 82 81 73 68
13 49 68 79 86 95 96 89 74 58 41 36 43 35 32 36 40 47 72 78 59 75 69 79 81 76 49 51 48 38 8 24 4 7 16 54 39 43 48 93 115 176 63
27 36 74 89 96 79 78 92 69 67 53 23 34 42 20 16 31 27 56 59 50 66 62 71 81 52 33 35 51 35 28 20 6 3 31 44 28 44 53 91 120 107 84
36 16 48 86 109 80 79 96 100 74 63 39 26 27 29 19 31 26 40 56 51 63 57 56 53 40 48 31 44 40 37 17 25 11 37 41 22 24 43 75 80 80 55
95 8 26 66 102 97 82 75 85 77 66 38 30 24 12 13 29 34 31 52 39 65 48 54 43 44 54 52 45 39 41 35 35 22 30 58 26 15 26 38 78 56 69
85 48 12 32 84 110 91 77 80 86 76 35 37 20 25 12 27 30 35 39 51 79 44 36 39 43 43 52 60 50 38 41 38 34 37 56 58 36 28 18 21 48 76
114 83 23 10 56 116 104 96 84 83 77 79 58 25 18 19 37 47 40 39 59 70 51 40 52 47 49 48 48 61 43 44 42 34 32 33 67 60 45 32 13 40 67
138 97 89 34 42 76 109 112 92 82 70 66 48 32 49 43 29 45 67 60 65 102 69 60 67 68 55 51 40 47 50 42 47 39 33 40 39 38 72 70 48 50 50
117 102 108 64 40 61 99 147 115 85 63 53 62 44 38 89 72 60 77 82 100 105 106 91 86 84 82 73 54 54 57 57 49 33 33 41 44 36 35 116 86 74 77
94 108 136 114 87 77 140 215 182 127 82 74 61 48 37 65 108 105 90 102 115 108 126 143 142 110 102 101 86 81 72 59 60 54 26 48 59 51 44 52 100 83 101
108 137 113 169 120 148 150 172 193 170 132 110 106 84 83 78 106 154 117 109 125 120 153 164 180 150 148 121 193 138 104 80 75 64 40 46 66 61 67 69 75 82 107
107 128 126 158 124 163 141 212 228 212 134 110 116 90 89 127 158 170 124 109 112 135 135 178 184 234 210 208 197 179 136 102 99 90 67 64 57 56 67 70 86 103 80
107 150 118 155 124 167 127 163 223 184 146 140 99 111 103 129 152 178 127 115 111 114 130 160 170 167 210 210 145 172 176 133 109 86 67 58 69 87 71 85 117 105 60
73 175 144 164 145 135 153 148 188 250 202 149 136 110 122 114 134 128 120 151 158 167 147 128 125 134 122 157 193 135 108 190 203 103 71 87 55 70 70 107 104 124 118
74 137 188 145 170 118 165 164 179 194 189 116 115 95 107 132 125 161 187 217 239 232 194 110 141 107 91 101 145 177 150 160 195 150 94 84 72 72 72 83 109 148 129
201 127 168 202 185 136 152 186 151 137 131 145 165 181 145 149 175 235 345 456 380 337 255 114 59 119 118 84 100 166 212 220 168 187 165 147 117 76 82 92 118 125 144

GFSSE_con_3kmhel_138.txt.gz
Helicity
76 141 168 142 154 125 112 124 116 97 82 75 68 70 74 61 51 49 33 16 18 22 19 17 10 8 13 22 40 56 72 79 93 103 106 92 58 64 64 39 56 38 62
92 92 188 148 148 131 112 125 134 124 108 91 76 80 75 56 48 39 22 16 5 10 15 17 15 19 20 19 25 39 46 50 54 56 61 61 70 83 105 73 99 60 70
108 136 166 166 137 137 116 127 139 133 131 107 97 75 76 59 45 35 21 15 7 15 19 21 24 26 22 22 28 33 35 29 29 29 37 27 61 85 88 79 70 87 69
86 162 148 140 125 130 117 123 135 140 145 132 94 90 69 65 47 34 23 23 21 19 22 30 34 31 33 38 34 33 27 17 20 4 19 33 54 70 54 62 59 54 52
116 128 122 124 113 123 121 120 127 140 152 149 110 92 78 58 54 33 32 29 31 22 21 32 41 41 41 38 35 25 14 11 -4 27 96 20 54 53 65 56 47 45 45
99 64 120 112 91 106 115 120 129 143 142 155 128 93 82 61 53 37 33 32 40 31 31 36 45 48 47 38 27 18 3 -8 0 66 83 7 85 56 57 34 44 46 62
153 152 97 114 73 78 100 116 124 136 139 149 151 100 81 65 53 53 34 31 40 41 48 42 47 53 39 32 21 9 -9 -10 30 24 -11 104 53 73 76 75 66 63 65
108 77 79 90 84 61 76 97 107 124 140 144 160 120 79 68 56 54 44 39 38 47 48 45 47 45 34 30 19 -4 -18 -21 69 4 63 57 52 76 80 76 74 74 87
63 41 39 38 88 70 77 93 97 105 131 147 159 127 87 60 53 52 48 47 48 47 48 50 46 40 37 27 11 -7 -29 -10 76 40 69 7 52 74 77 67 76 84 93
-32 84 27 24 92 80 72 88 100 103 117 143 155 130 89 64 39 48 50 50 55 55 49 53 47 45 40 32 16 -11 -24 4 45 30 -23 13 36 77 77 77 71 81 86
-81 -8 46 39 79 92 83 90 100 107 123 138 141 136 100 59 33 33 29 56 59 61 53 55 51 49 49 37 19 -7 -27 16 38 52 61 36 56 80 73 64 90 85 76
90 -39 19 18 47 92 87 113 113 106 122 139 136 130 98 48 40 29 39 72 74 68 61 61 57 50 42 35 19 0 -8 15 19 68 49 51 67 88 81 87 91 95 75
149 18 83 63 64 70 70 146 150 138 144 147 138 142 105 62 42 9 81 79 91 85 78 71 61 36 14 9 57 15 11 7 27 79 66 64 63 84 85 95 108 111 102
102 80 19 132 150 118 67 144 132 154 164 168 151 160 131 93 76 52 86 86 83 88 68 66 52 24 13 -13 50 30 -1 8 39 83 89 104 75 83 75 81 90 104 120
148 158 34 53 202 205 140 121 150 112 172 172 171 173 139 104 108 83 87 77 82 94 56 62 41 26 3 38 61 47 32 18 24 31 76 84 83 83 76 72 75 84 99
63 86 163 79 109 217 189 114 177 178 140 161 163 196 158 123 118 104 90 77 67 97 45 72 14 58 6 42 33 48 41 32 15 48 91 81 90 85 86 82 76 78 83
42 50 95 158 136 190 209 134 155 187 204 193 161 192 183 132 105 107 111 72 67 76 34 74 43 39 52 78 66 60 56 37 40 55 97 113 84 113 89 91 99 78 81
73 36 61 76 118 152 191 206 136 198 185 221 185 199 202 157 107 113 123 84 74 103 27 58 64 14 33 29 96 92 86 75 51 71 52 94 110 110 81 100 91 90 85
187 336 56 63 58 102 189 202 207 154 183 157 210 221 217 165 163 134 108 111 82 86 75 68 43 33 102 24 36 119 90 79 101 81 93 70 78 118 110 101 132 120 102
168 246 370 64 82 42 77 169 171 226 169 188 193 190 247 238 186 157 116 128 96 80 75 79 47 87 123 98 44 67 104 106 116 109 100 107 93 93 140 122 109 84 117
106 262 319 197 200 38 85 188 150 161 224 176 220 244 290 304 198 204 122 152 131 133 81 118 100 62 85 74 124 130 126 106 94 88 89 154 161 142 99 161 170 131 115
223 215 233 187 199 86 59 62 175 148 185 281 187 228 221 249 200 208 208 184 144 158 101 112 142 139 121 125 192 183 152 131 106 111 101 144 171 168 152 135 183 155 168
190 246 197 232 306 257 69 80 94 159 148 152 160 210 168 286 233 179 227 292 223 194 172 141 132 138 171 197 185 211 208 167 109 119 115 101 91 155 159 135 148 162 162
138 140 95 220 313 479 105 108 74 182 139 173 186 198 227 215 241 213 226 236 238 197 151 192 223 215 221 180 176 126 116 170 168 173 119 75 47 76 132 186 184 151 179
56 78 47 89 156 294 473 90 95 146 177 119 197 145 220 214 303 256 206 203 255 201 157 238 352 301 296 265 256 262 188 90 34 152 254 136 135 118 145 184 166 134 164
25 92 85 28 128 260 277 236 138 44 140 110 117 162 258 290 357 312 267 218 197 256 261 362 379 355 280 247 196 262 375 407 347 253 279 281 135 119 141 168 217 170 180

GFSSE_con_3kmhel_141.txt.gz
Helicity
24 57 108 124 150 142 140 131 123 107 76 56 42 44 54 62 68 39 38 41 39 41 40 27 21 20 32 46 44 56 63 71 69 51 56 69 60 76 44 42 27 45 52
87 65 107 133 142 141 126 132 115 115 102 78 49 49 48 55 60 33 30 33 20 14 19 13 12 22 24 32 35 42 47 48 53 60 73 64 60 59 70 48 63 48 63
77 98 98 136 141 132 126 124 115 106 111 106 70 46 49 47 56 30 24 31 21 16 7 9 13 19 16 20 23 29 24 29 45 56 59 42 60 74 87 84 70 73 67
98 153 141 146 132 122 111 115 115 112 104 115 106 61 47 47 47 35 17 25 26 24 16 17 18 19 22 24 23 19 20 35 57 32 44 17 48 54 46 57 52 59 56
115 157 140 128 115 111 95 103 108 108 103 106 115 98 50 50 49 39 22 11 13 16 20 19 20 19 24 20 19 21 18 47 23 11 19 17 29 37 46 55 51 50 43
58 91 134 129 104 102 83 85 95 100 97 104 112 112 83 45 50 44 31 15 6 14 25 26 25 23 20 13 5 29 14 44 37 33 54 10 18 55 61 51 43 49 54
105 62 22 97 87 85 82 74 84 91 94 96 110 104 96 65 45 45 34 30 21 27 41 31 34 28 14 6 -2 28 44 44 38 -9 -31 -21 16 64 74 62 56 54 58
65 82 32 63 91 78 78 72 79 87 93 94 106 111 102 78 56 48 37 35 38 40 39 42 37 27 7 3 -6 15 43 30 39 -1 -17 12 50 68 83 71 61 62 74
27 52 67 53 96 85 77 77 78 84 86 90 102 103 114 93 75 60 44 40 42 47 46 44 47 31 13 4 -11 1 32 48 42 11 16 6 46 66 77 80 73 88 99
22 41 44 66 73 116 111 90 95 84 80 90 99 102 107 107 83 74 57 41 44 48 52 52 46 36 23 4 -5 2 33 97 47 52 -3 6 47 89 95 83 79 89 98
33 74 87 102 74 118 130 110 113 102 92 90 97 114 130 113 104 83 68 60 50 49 51 59 49 41 28 8 -3 -6 29 82 63 31 35 30 55 85 92 91 83 92 96
110 85 142 138 116 99 147 154 147 141 129 125 127 139 138 127 110 91 71 68 61 56 58 63 52 48 36 11 -5 -6 15 50 38 47 34 44 49 74 88 93 101 97 90
48 9 -11 143 145 108 98 197 187 185 171 162 153 168 160 134 114 102 102 81 84 76 82 77 66 42 24 15 12 15 6 36 60 58 36 69 53 71 88 98 105 108 104
68 74 13 -20 78 136 122 109 191 209 206 195 179 171 184 171 149 133 129 126 114 107 101 91 63 38 18 9 31 41 12 56 73 75 50 53 72 70 90 92 95 107 119
309 222 74 6 58 67 107 183 196 171 216 229 228 200 193 179 179 162 153 142 124 118 109 89 66 38 15 1 1 39 26 59 48 56 52 47 52 72 83 91 93 96 113
229 206 203 170 152 66 95 92 212 235 185 238 244 251 213 202 195 179 175 158 138 125 113 101 73 43 10 24 21 43 24 23 66 62 65 43 54 85 75 83 88 92 95
184 138 135 169 293 179 78 107 134 218 268 247 206 241 248 203 228 203 208 161 149 133 108 88 56 35 28 -14 27 44 44 30 35 72 91 83 63 58 58 75 77 80 93
63 31 88 98 161 272 402 258 106 108 226 220 222 230 217 212 220 244 209 174 153 158 103 111 63 53 60 22 -0 21 37 65 54 64 111 100 106 92 79 72 80 88 84
-30 -13 7 112 114 89 259 231 312 110 100 235 225 228 242 213 229 250 213 190 159 142 119 86 72 108 72 62 44 20 42 69 88 76 107 118 118 121 116 85 92 104 113
-59 5 83 115 185 91 4 153 202 237 156 98 210 225 233 266 220 257 236 192 174 151 130 98 85 105 67 41 77 72 57 42 68 99 103 131 152 155 143 142 117 85 87
41 98 91 89 203 139 -91 10 170 254 165 177 97 122 194 210 275 284 279 217 157 168 156 128 166 140 81 103 100 92 102 96 115 111 112 120 107 160 149 157 163 158 124
69 127 175 128 171 237 117 -62 36 208 200 120 180 103 94 169 247 274 313 252 197 197 173 170 152 204 160 144 149 155 166 123 115 102 110 123 126 136 181 195 186 184 165
74 97 173 214 197 226 268 42 -77 56 152 230 126 147 95 107 180 265 286 317 256 214 186 178 169 153 204 178 180 211 238 200 204 152 114 114 143 155 158 158 184 191 196
23 63 105 151 196 165 276 158 129 6 85 163 123 115 112 62 120 206 294 309 337 278 203 216 206 173 228 225 259 227 262 234 249 267 187 115 151 121 116 161 170 166 180
-9 13 43 108 132 126 57 128 141 133 118 110 158 116 131 101 119 203 304 308 336 350 295 263 205 199 225 263 292 327 230 283 266 291 300 242 224 214 105 98 161 162 200
-17 -3 1 31 152 207 133 143 162 95 99 52 178 157 118 94 103 128 299 326 366 389 389 317 229 210 219 223 257 266 261 296 225 245 308 280 255 245 193 141 131 135 152

GFSSE_con_3kmhel_144.txt.gz
Helicity
44 48 57 54 76 125 162 164 154 144 131 118 94 77 66 63 59 56 53 56 54 53 60 56 47 43 47 39 30 37 48 44 37 38 44 54 59 68 40 28 20 46 43
87 54 93 76 75 108 131 142 143 142 142 130 126 101 74 60 56 50 40 41 46 53 53 43 43 41 45 29 23 37 37 38 45 52 57 67 56 63 55 25 40 51 43
100 92 83 95 88 96 107 113 122 126 136 138 129 132 94 63 60 57 42 38 33 46 49 37 41 36 34 26 29 39 44 51 70 49 51 48 55 59 52 50 56 72 50
106 144 112 110 106 86 89 98 99 105 112 121 124 120 111 76 60 59 53 42 32 28 38 35 39 34 25 29 35 51 60 66 53 39 23 8 43 49 48 63 61 59 43
71 134 141 136 119 79 77 90 78 86 95 115 116 131 106 87 61 51 54 50 39 32 31 32 33 30 30 26 42 40 47 49 35 32 15 -12 16 28 44 55 56 61 67
29 59 91 114 126 84 65 78 72 76 85 95 103 128 130 95 75 51 48 48 40 27 24 25 35 27 35 34 39 31 26 34 43 41 22 4 25 42 49 54 55 54 66
-12 18 71 103 117 91 69 75 77 72 75 79 83 111 119 112 84 62 57 45 41 42 38 24 31 30 40 39 41 40 21 27 26 13 0 16 11 48 55 51 56 63 70
12 36 58 43 72 82 65 69 76 64 65 70 74 95 110 108 98 78 67 55 45 46 42 37 29 28 27 40 45 60 21 -3 21 -20 12 9 17 52 64 65 59 71 83
38 52 72 66 53 84 78 69 79 76 70 68 65 82 100 103 97 89 73 63 63 50 42 40 35 24 20 45 41 71 45 -4 -1 -9 2 8 28 58 67 67 70 82 86
30 27 60 80 110 106 100 87 85 88 84 80 73 81 96 102 97 93 82 67 68 66 51 40 37 28 15 34 44 83 66 22 -13 -9 -8 -17 39 61 64 66 78 85 95
3 -7 17 73 103 123 126 116 121 100 94 95 99 99 126 123 109 101 84 69 67 67 63 51 40 35 20 19 40 77 87 47 34 26 0 -14 36 56 70 75 76 94 104
231 206 120 39 82 114 104 155 146 149 135 131 140 135 153 148 141 121 93 80 73 67 64 62 51 42 38 24 29 58 77 58 33 15 -13 30 33 62 72 78 87 91 95
190 272 319 295 236 146 100 134 155 187 181 156 160 162 143 161 156 163 136 108 99 83 84 75 70 53 37 37 33 40 77 50 44 30 18 15 30 63 70 76 90 96 95
276 226 277 282 249 232 156 159 109 81 196 203 179 171 197 179 170 185 187 149 123 116 106 95 82 58 41 36 37 36 81 62 49 56 28 -4 18 63 74 75 90 100 109
220 193 127 163 114 164 229 210 104 173 100 194 240 212 213 228 192 194 209 184 146 142 114 103 88 73 52 35 29 39 79 48 57 32 73 34 20 30 64 76 76 93 105
227 134 51 -7 39 52 112 189 198 127 198 142 180 230 248 236 233 216 216 214 168 166 131 109 101 80 56 49 25 14 53 47 56 56 59 20 32 26 57 60 69 76 99
210 153 25 -40 -26 7 58 101 150 177 135 145 184 191 222 274 256 235 238 222 210 181 149 121 88 84 63 51 15 23 16 41 78 48 59 70 47 33 35 46 66 73 84
175 142 58 -41 -99 -63 -30 33 61 147 176 141 166 170 174 175 248 275 257 227 224 216 185 150 118 77 56 65 21 -1 -6 -2 72 84 62 70 93 73 41 75 56 70 96
60 27 -40 -107 -99 -56 -38 -14 50 96 150 179 144 121 159 98 188 290 304 259 241 223 217 175 138 122 76 61 35 14 16 1 47 89 77 84 95 100 93 58 94 96 91
-53 -68 -85 -77 -50 -28 -24 -47 -23 53 86 182 208 187 138 116 168 234 285 300 282 226 225 205 155 124 100 83 55 35 22 23 46 86 107 105 98 101 110 105 89 78 99
30 23 0 -46 -19 3 -17 11 -42 -65 83 104 214 194 178 147 129 164 214 292 318 239 220 236 201 148 101 86 156 108 90 57 67 59 79 133 131 129 139 128 139 133 102
24 46 85 89 -6 29 67 48 57 -22 -63 75 116 209 211 154 155 170 136 236 281 261 232 245 212 174 138 152 168 204 149 132 60 77 107 148 153 152 133 131 152 162 162
34 57 58 51 77 41 114 60 54 108 -18 -41 74 85 208 202 151 162 163 231 27 272 261 270 225 188 166 159 149 230 258 140 197 144 119 172 171 187 147 136 133 155 168
45 46 31 49 18 40 96 108 70 27 67 0 29 110 59 201 193 138 147 170 179 253 287 271 273 228 212 178 249 166 231 195 226 178 182 178 181 186 150 181 166 122 134
15 5 -8 -11 -2 28 71 132 106 34 56 53 7 105 114 51 81 124 146 127 142 92 221 281 271 255 268 240 228 281 304 267 227 215 191 188 164 164 153 169 205 184 151
1 14 -16 -38 -28 4 15 94 129 82 -3 -2 17 47 114 78 28 11 15 115 128 112 278 208 278 279 285 255 239 260 263 306 285 293 266 244 204 193 144 151 192 229 184

GFSSE_con_3kmhel_150.txt.gz
Helicity
1 30 75 79 67 55 71 106 114 130 151 169 178 180 178 159 140 109 91 82 61 57 50 34 26 24 41 42 52 58 46 42 36 33 33 36 43 38 34 29 30 47 54
21 35 66 98 86 75 84 111 115 116 138 160 170 173 171 156 147 118 105 84 65 59 50 51 50 51 53 62 64 54 48 43 43 39 30 31 46 40 36 35 59 71 71
31 45 57 87 81 76 86 106 128 117 119 133 143 154 158 144 134 116 91 79 70 61 62 57 59 74 64 73 71 58 48 55 47 41 28 18 33 51 43 41 65 78 97
31 36 58 71 64 67 76 91 112 127 115 111 116 125 134 134 127 105 83 71 72 72 68 60 61 73 69 75 71 69 69 55 53 47 31 25 27 55 56 51 70 80 86
34 34 39 41 39 44 64 83 95 106 110 100 103 111 116 118 113 104 85 76 77 80 79 75 67 72 76 79 67 67 68 46 53 44 32 27 22 41 46 51 49 62 61
62 51 65 43 43 46 58 64 77 86 95 92 97 104 108 107 108 98 91 82 82 88 87 85 77 72 78 75 70 58 57 55 50 34 32 12 18 33 40 32 38 48 60
178 108 65 92 107 69 47 41 46 64 81 91 87 97 101 100 101 98 97 92 89 91 90 85 83 76 75 73 63 61 48 48 45 32 24 14 9 33 38 36 44 61 67
231 205 188 168 148 112 100 72 48 38 59 75 74 80 89 99 99 102 98 100 96 100 93 90 88 75 83 76 60 46 45 44 44 38 22 9 10 34 45 38 44 57 45
294 293 257 208 181 174 136 114 85 68 44 42 65 79 84 78 77 86 79 87 94 102 101 93 92 75 83 84 59 46 44 26 33 14 21 12 22 29 38 35 41 43 46
348 347 331 259 204 190 157 123 114 113 56 42 43 57 79 91 95 98 87 70 80 92 106 101 99 78 71 89 68 54 44 32 24 20 9 13 16 31 31 29 38 46 64
422 371 327 304 283 245 161 168 160 148 106 66 53 54 66 88 105 110 105 84 75 87 107 110 103 97 65 87 77 52 61 44 30 25 15 9 16 26 33 33 35 42 60
442 426 357 289 268 236 188 177 146 144 132 144 90 59 70 78 92 111 109 97 83 79 95 110 106 112 92 82 83 68 52 62 48 30 23 18 23 22 27 49 56 50 60
298 289 299 267 234 176 157 143 107 84 77 89 105 91 83 63 82 114 122 138 154 122 124 128 136 144 132 106 82 85 58 56 64 55 33 25 10 27 26 39 60 55 70
219 211 212 184 150 137 106 75 70 64 71 41 75 108 89 106 92 87 142 134 161 190 158 153 159 153 147 126 102 74 69 57 68 72 48 33 19 8 20 39 51 59 66
153 152 145 132 141 133 99 58 54 62 40 63 43 65 104 82 113 129 133 172 175 188 203 187 176 167 158 151 141 104 78 62 63 64 61 36 28 -3 15 36 49 60 57
148 161 148 110 67 37 24 30 9 -6 16 28 9 49 75 67 96 132 123 143 209 214 215 214 205 191 159 181 165 139 102 84 75 75 68 46 23 1 -11 21 42 50 55
138 110 91 56 42 14 -47 -77 -73 -47 -27 -30 12 47 49 87 118 130 95 142 196 202 195 217 204 253 203 176 163 179 148 106 83 84 92 75 31 -3 -5 -12 37 48 51
150 133 100 78 75 65 21 -33 -71 -90 -95 -64 -10 10 76 96 129 134 153 155 203 222 202 203 254 202 227 198 158 171 191 171 122 101 101 76 71 51 -4 -14 -4 16 43
145 133 109 69 42 26 -43 -63 -43 -25 -51 -67 -80 2 58 116 165 163 126 162 150 214 152 202 223 254 236 235 194 162 205 192 156 127 106 101 78 69 76 26 25 28 23
94 69 57 45 43 36 -6 -24 -61 -103 -106 -50 -4 -33 33 102 160 195 171 185 222 206 316 232 245 246 249 262 257 186 178 178 187 162 127 128 100 76 77 54 34 23 41
68 61 53 50 69 51 49 5 -43 -82 -77 -67 -71 -48 67 68 122 158 188 172 223 230 177 194 201 107 235 292 312 248 183 154 160 165 139 136 92 65 68 82 82 74 46
49 50 50 46 54 22 10 15 -5 -4 -53 -50 13 35 -43 41 118 173 220 249 246 211 250 163 250 245 262 330 338 285 191 155 128 151 149 110 74 99 80 88 94 126 115
107 116 87 53 33 7 10 -11 -12 -37 -27 -59 -4 1 92 47 82 175 216 269 298 263 204 175 228 245 324 362 271 374 212 204 198 226 168 134 80 103 95 110 100 127 148
100 69 53 45 23 -9 -30 -59 -35 -75 -59 -50 -49 -37 -11 86 99 149 251 241 268 282 264 208 180 186 218 261 239 187 289 224 216 252 260 182 151 109 109 118 152 137 151
93 68 54 47 27 17 -6 -47 -56 -57 -31 -12 -28 -18 1 14 111 196 280 318 323 326 287 250 160 108 191 219 297 183 160 318 267 226 205 240 230 135 145 151 170 172 160
81 76 72 76 51 35 8 -11 -33 -44 -21 -19 -34 -56 -44 49 82 159 199 224 246 298 342 310 183 113 162 121 289 219 67 199 247 232 276 237 181 225 204 210 198 176 189